sat.trackr.live / text

‹ back to catalog

STARLINK-3797

NORAD 52337 · 2022-045G

PAYLOAD ACTIVE UNKNOWN

§ Identity

Operator
Country
US
Launch date
2022-04-29
Launch site
AFETR
Launch vehicle
Mass (kg)
RCS (m²)

Purposes: comms

External: N2YO · Heavens-Above · Gunter

§ Orbital elements

Epoch: 2026-09-20T00:00:02.998944Z

Period
93.79 min
Inclination
53.1596°
Eccentricity
0.0000773
Mean motion
15.35403893 rev/d
Perigee alt
459.2 km
Apogee alt
460.2 km
Semi-major
6,837.9 km
B*
-5.7615e-5
RAAN
53.8385°
Arg perigee
84.9967°
Mean anomaly
38.4906°
Rev number
561

§ Raw data

STARLINK-37971 52337U 22045G   26263.00003471 -.00002389  00000+0 -57615-4 0  99982 52337  53.1596  53.8385 0000773  84.9967  38.4906 15.35403893  5616

JSON: /api/v1/satellites/52337 · /tle

For live sub-satellite position, see the globe view (requires WebGL).

§ Visibility from observer

Set your observer location to see the next 7 days of passes ≥ 10°. The values pass through the URL so the page stays shareable.

No JS? Fill the form by hand. The geolocation button needs JavaScript.